Location: Drouwen
(52.9559°N, 6.7974°E)
Time: 11:18:42
(UTC+00:00)

Cosmos 2034 Rocket - Pass Details

Date: 15 May 2026
Orbit: 956 x 1001 km, 82.9° (Epoch: 8 June)

Event Time Altitude Azimuth Distance (km) Brightness Sun altitude
Exits shadow 21:58:34 14° 195° (SSW) 2,466 5.6 -15.4°
Maximum altitude 22:04:07 78° 281° (W) 1,021 4.1 -15.7°
Drops below altitude 10° 22:10:29 10° 9° (N) 2,761 7.3 -16.0°
Sets 22:13:01 0° 11° (N) 3,708 8.1 -16.1°
